Date String (YYYY-MM-DD hh:mm:ss) UTC,Instrument flags,Ambient pressure (hPa),Sample flow (lpm),Bypass flow (lpm),Sample temperature (°C),Ambient temperature (°C),ASC tube jacket temperature (°C),LED temperature (°C),Box temperature (°C),Sample RH (%),Span deviation,Mass concentration (μg/m³),Mass concentration (μg/m³),Mass concentration (μg/m³)
DateTimeUTC,F1_M11,P_M11,Q1_M11,Q2_M11,T1_M11,T2_M11,T3_M11,T4_M11,T5_M11,U1_M11,ZSPAN_M11,X0_M11,X2_M11,X1_M11
2023-03-01 08:00:00,,0816.4,5.00,0.00,21.9,20.0,00.0,30.8,23.4,05.8,0000.0,0003.33,0001.59,0000.91
2023-03-01 08:01:00,,0816.5,5.01,0.00,21.9,20.2,00.0,30.7,23.4,05.8,0000.0,0002.84,0001.59,0000.91
2023-03-01 08:02:00,,0816.4,5.03,0.00,22.0,21.4,00.0,30.7,23.7,05.8,0000.0,0002.93,0001.61,0000.91
2023-03-01 08:03:00,,0816.4,5.02,0.00,22.1,22.5,00.0,30.7,24.1,05.8,0000.0,0003.26,0001.59,0000.90
2023-03-01 08:04:00,,0816.4,5.01,0.00,22.2,23.2,00.0,30.7,24.3,05.7,0000.0,0003.63,0001.56,0000.90
2023-03-01 08:05:00,,0816.4,4.98,0.00,22.3,22.8,00.0,30.8,24.2,05.7,0000.0,0003.67,0001.56,0000.89
2023-03-01 08:06:00,,0816.5,5.00,0.00,22.3,22.1,00.0,30.8,24.1,05.7,0000.0,0003.62,0001.53,0000.88
2023-03-01 08:07:00,,0816.4,5.00,0.00,22.3,21.6,00.0,30.9,24.0,05.6,0000.0,0003.72,0001.51,0000.87
2023-03-01 08:08:00,,0816.5,5.00,0.00,22.2,21.1,00.0,30.9,23.9,05.6,0000.0,0003.58,0001.44,0000.87
2023-03-01 08:09:00,,0816.4,4.99,0.00,22.2,20.8,00.0,30.9,23.8,05.6,0000.0,0003.49,0001.39,0000.85
2023-03-01 08:10:00,,0816.4,5.00,0.00,22.1,20.5,00.0,30.9,23.7,05.5,0000.0,0003.33,0001.33,0000.84
2023-03-01 08:11:00,,0816.4,5.01,0.00,22.1,20.3,00.0,30.9,23.6,05.4,0000.0,0003.36,0001.32,0000.83
2023-03-01 08:12:00,,0816.4,5.00,0.00,22.0,20.1,00.0,30.8,23.6,05.5,0000.0,0004.81,0001.34,0000.82
2023-03-01 08:13:00,,0816.5,5.02,0.00,22.0,20.0,00.0,30.8,23.5,05.4,0000.0,0004.64,0001.29,0000.82
2023-03-01 08:14:00,,0816.5,5.00,0.00,22.0,20.4,00.0,30.8,23.5,05.4,0000.0,0004.21,0001.24,0000.80
2023-03-01 08:15:00,,0816.5,4.99,0.00,22.1,21.6,00.0,30.8,23.8,05.5,0000.0,0003.79,0001.24,0000.80
2023-03-01 08:16:00,,0816.5,5.04,0.00,22.2,22.6,00.0,30.8,24.1,05.4,0000.0,0003.73,0001.25,0000.81
2023-03-01 08:17:00,,0816.5,5.02,0.00,22.3,23.1,00.0,30.8,24.3,05.3,0000.0,0003.79,0001.29,0000.81
2023-03-01 08:18:00,,0816.4,4.99,0.00,22.3,22.6,00.0,30.9,24.2,05.3,0000.0,0003.55,0001.26,0000.82
2023-03-01 08:19:00,,0816.4,4.97,0.00,22.3,21.9,00.0,30.9,24.0,05.3,0000.0,0003.66,0001.29,0000.81
2023-03-01 08:20:00,,0816.5,4.98,0.00,22.3,21.4,00.0,30.9,23.9,05.3,0000.0,0003.77,0001.33,0000.81
2023-03-01 08:21:00,,0816.6,5.00,0.00,22.2,21.0,00.0,30.9,23.8,05.4,0000.0,0003.97,0001.37,0000.82
2023-03-01 08:22:00,,0816.5,5.01,0.00,22.2,20.7,00.0,30.9,23.7,05.5,0000.0,0004.02,0001.39,0000.83
2023-03-01 08:23:00,,0816.5,4.99,0.00,22.1,20.5,00.0,30.9,23.7,05.5,0000.0,0002.75,0001.36,0000.83
2023-03-01 08:24:00,,0816.5,5.00,0.00,22.1,20.4,00.0,30.9,23.7,05.4,0000.0,0002.51,0001.36,0000.84
2023-03-01 08:25:00,,0816.5,5.01,0.00,22.1,20.3,00.0,30.9,23.6,05.5,0000.0,0002.52,0001.38,0000.84
2023-03-01 08:26:00,,0816.5,5.00,0.00,22.0,20.2,00.0,30.8,23.5,05.5,0000.0,0002.64,0001.38,0000.84
2023-03-01 08:27:00,,0816.5,5.03,0.00,22.0,20.8,00.0,30.8,23.6,05.5,0000.0,0003.32,0001.37,0000.83
2023-03-01 08:28:00,,0816.5,4.99,0.00,22.1,21.9,00.0,30.8,23.9,05.5,0000.0,0003.36,0001.37,0000.83
2023-03-01 08:29:00,,0816.5,4.96,0.00,22.2,22.7,00.0,30.8,24.1,05.4,0000.0,0003.53,0001.42,0000.83
2023-03-01 08:30:00,,0816.4,5.00,0.00,22.2,22.3,00.0,30.9,24.0,05.4,0000.0,0003.83,0001.40,0000.83
2023-03-01 08:31:00,,0816.4,5.00,0.00,22.2,21.7,00.0,30.9,23.9,05.4,0000.0,0004.60,0001.34,0000.83
2023-03-01 08:32:00,,0816.4,5.00,0.00,22.1,21.2,00.0,30.9,23.7,05.4,0000.0,0004.97,0001.32,0000.83
2023-03-01 08:33:00,,0816.4,4.99,0.00,22.1,20.8,00.0,30.9,23.7,05.4,0000.0,0004.86,0001.29,0000.84
2023-03-01 08:34:00,,0816.4,5.00,0.00,22.1,20.6,00.0,30.9,23.6,05.5,0000.0,0004.92,0001.31,0000.83
2023-03-01 08:35:00,,0816.3,5.00,0.00,22.0,20.4,00.0,30.9,23.6,05.4,0000.0,0005.07,0001.36,0000.82
2023-03-01 08:36:00,,0816.3,4.99,0.00,22.0,20.2,00.0,30.8,23.5,05.4,0000.0,0005.22,0001.39,0000.83
2023-03-01 08:37:00,,0816.3,5.00,0.00,21.9,20.1,00.0,30.8,23.4,05.4,0000.0,0005.54,0001.40,0000.83
2023-03-01 08:38:00,,0816.3,5.02,0.00,21.9,20.5,00.0,30.8,23.5,05.3,0000.0,0005.13,0001.40,0000.83
2023-03-01 08:39:00,,0816.3,4.96,0.00,22.0,21.7,00.0,30.8,23.8,05.2,0000.0,0005.11,0001.39,0000.83
2023-03-01 08:40:00,,0816.2,4.99,0.00,22.1,22.7,00.0,30.8,24.1,05.2,0000.0,0004.99,0001.36,0000.83
2023-03-01 08:41:00,,0816.1,4.96,0.00,22.2,22.7,00.0,30.8,24.2,05.1,0000.0,0004.66,0001.37,0000.82
2023-03-01 08:42:00,,0816.1,5.00,0.00,22.3,22.2,00.0,30.9,24.1,05.1,0000.0,0003.83,0001.35,0000.81
2023-03-01 08:43:00,,0816.1,5.02,0.00,22.2,21.8,00.0,30.9,24.0,05.1,0000.0,0003.46,0001.34,0000.81
2023-03-01 08:44:00,,0816.1,4.99,0.00,22.2,21.4,00.0,30.9,24.0,05.1,0000.0,0003.61,0001.33,0000.81
2023-03-01 08:45:00,,0816.1,5.01,0.00,22.2,21.2,00.0,30.9,23.9,05.1,0000.0,0003.57,0001.30,0000.79
2023-03-01 08:46:00,,0816.0,5.00,0.00,22.2,21.0,00.0,30.9,23.9,05.1,0000.0,0003.43,0001.25,0000.79
2023-03-01 08:47:00,,0816.0,5.00,0.00,22.2,20.9,00.0,30.9,23.9,05.2,0000.0,0003.26,0001.19,0000.78
2023-03-01 08:48:00,,0816.0,5.00,0.00,22.2,20.7,00.0,30.9,23.8,05.2,0000.0,0002.97,0001.18,0000.77
2023-03-01 08:49:00,,0816.0,5.01,0.00,22.1,20.6,00.0,30.9,23.8,05.1,0000.0,0002.53,0001.18,0000.77
2023-03-01 08:50:00,,0816.0,5.00,0.00,22.1,20.5,00.0,30.9,23.8,05.1,0000.0,0002.44,0001.18,0000.77
2023-03-01 08:51:00,,0816.0,4.99,0.00,22.1,20.5,00.0,30.9,23.7,05.1,0000.0,0002.46,0001.19,0000.76
2023-03-01 08:52:00,,0816.0,5.00,0.00,22.1,20.4,00.0,30.9,23.7,05.1,0000.0,0002.40,0001.18,0000.76
2023-03-01 08:53:00,,0816.0,4.99,0.00,22.1,20.4,00.0,30.9,23.7,05.1,0000.0,0002.40,0001.19,0000.77
2023-03-01 08:54:00,,0816.0,5.01,0.00,22.1,20.7,00.0,30.9,23.8,05.0,0000.0,0002.35,0001.16,0000.76
2023-03-01 08:55:00,,0816.0,4.99,0.00,22.2,22.0,00.0,30.8,24.0,05.0,0000.0,0002.86,0001.17,0000.75
2023-03-01 08:56:00,,0815.9,5.00,0.00,22.3,23.0,00.0,30.9,24.3,04.9,0000.0,0002.85,0001.18,0000.76
2023-03-01 08:57:00,,0815.9,4.96,0.00,22.4,22.9,00.0,30.9,24.4,04.9,0000.0,0002.83,0001.17,0000.77
2023-03-01 08:58:00,,0815.9,4.98,0.00,22.4,22.4,00.0,31.0,24.2,04.8,0000.0,0002.82,0001.16,0000.77
2023-03-01 08:59:00,,0815.9,5.00,0.00,22.4,21.9,00.0,31.0,24.2,04.8,0000.0,0003.04,0001.14,0000.76
